Other Surface Observations
Issued by NWS

Home | Current Version | Previous Version | Text Only | Print | Product List | Glossary On
Versions: 1 2 3 4 5 6 7 8 9 10 11 12 13 14 15 16 17 18 19 20 21 22 23 24 25 26 27 28 29 30 31 32 33 34 35 36 37 38 39 40 41 42 43 44 45 46 47 48 49 50
000
SXUS52 KTAE 270718
OSOTAE
OSOTAE
North Florida/South Alabama/Southwest Georgia Weather Roundup
National Weather Service Tallahassee Florida
200 AM EST FRI FEB 27 2015

Note: "fair" indicates few or no clouds below 12,000 feet with no
significant weather and/or obstructions to visibility.

!FLZ017-115-028-034-025-270800
...North Florida...

CITY           SKY/WX    TMP DP  RH WIND       PRES   REMARKS
TALLAHASSEE    CLOUDY    44  37  76 N8        30.19R WCI  39
APALACHICOLA   CLOUDY    46  37  71 N10       30.17F WCI  41
PERRY          MOCLDY    46  41  82 N8        30.15F WCI  41
CROSS CITY       N/A     48  41  76 NE7       30.13S WCI  45
JACKSONVILLE   CLOUDY    46  42  86 N5        30.14R WCI  44
$$

!FLZ112-006-005-002-011-270800
...Florida Panhandle...

CITY           SKY/WX    TMP DP  RH WIND       PRES   REMARKS
MARIANNA       CLOUDY    40  35  83 N8        30.21R WCI  34
BONIFAY        FAIR      39  33  79 N8        30.23R WCI  33
PANAMA CITY NW FAIR      39  34  82 N8        30.19S WCI  33
TYNDALL AFB    CLOUDY    42  37  83 N8        30.20R WCI  37
TYND DRONE APT PTSUNNY   42  38  86 N13       30.19S WCI  35
DE FUNIAK SPR  FAIR      35  32  90 N7        30.22S WCI  29
EGLIN AFB      CLOUDY    37  31  77 N12       30.22R WCI  30
DESTIN         CLOUDY    39  32  76 N13G23    30.22S WCI  31
HURLBURT       CLOUDY    38  29  69 N13       30.21F WCI  30
CRESTVIEW      CLOUDY    36  30  79 VRB5      30.25R WCI  32
PENSACOLA      CLOUDY    38  32  79 N8        30.24S WCI  32
$$

!ALZ063-066-270800
...South Alabama...

CITY           SKY/WX    TMP DP  RH WIND       PRES   REMARKS
DOTHAN         MOCLDY    37  32  82 N6        30.25R WCI  32
OZARK CAIRNS   MOCLDY    37  31  80 NW7       30.22R WCI  31
FT RUCKER HELI MOCLDY    36  31  82 N5        30.22R WCI  32
RUCKER HELI 3  MOCLDY    35  32  90 N6        30.23S WCI  29
RUCKER HELI 2  FAIR      36  31  82 N5        30.23R WCI  32
FLORALA APT    MOCLDY    35  30  82 NE3       30.25R
ANDALUSIA      CLOUDY    38  30  73 N5        30.24S WCI  34
TROY           MOCLDY    31  29  92 CALM      30.24S
EUFALA         FAIR      37  31  78 NW3       30.22R
MOBILE         PTCLDY    35  29  78 N12       30.27R WCI  27
$$

!GAZ120>161-270800
...Southwest and South Central Georgia...

CITY           SKY/WX    TMP DP  RH WIND       PRES   REMARKS
THOMASVILLE    CLOUDY    43  43 100 N9        30.19R WCI  37
BAINBRIDGE     CLOUDY    43  37  81 N10G16    30.21R WCI  37
MOODY AFB      CLOUDY    44  40  85 NW5       30.16R WCI  42
VALDOSTA       CLOUDY    45  41  86 CALM      30.17R
MOULTRIE       CLOUDY    41  37  87 N9G17     30.19R WCI  35
BLAKELY        CLOUDY    41  36  81 N5        30.23R WCI  38
ALBANY         CLOUDY    40  33  76 N5        30.22S WCI  37
TIFTON         CLOUDY    40  35  79 N8        30.18R WCI  35
FITZGERALD     CLOUDY    43  35  75 N7        30.20S WCI  38
CORDELE        CLOUDY    42  35  75 N3        30.21S
AMERICUS       CLOUDY    36  32  87 NW3       30.22S
HOMERVILLE     CLOUDY    45  43  93 NW3       30.18R
$$

!GMZ750-755-770-775-270800
...Coastal and Buoy Obs...

STATION/POSITION TIME  TEMP    WIND        PRES    VSBY  WAVE
                       AIR SEA DIR/SP/G                  HT/PER
                 (UTC) (F)     (DEG/KT/KT) (MB)    (MI)  (FT/S)
KEATON BEACH     0700   45      20/  3/  4 1021.1R
CEDAR KEY        0700   50      30/  7/  9 1020.2R
C TOWER          0700   46     360/ 20/ 23 1020.5F
APALACHICOLA BUO 0700   55 65   10/ 16/ 19 1019.5S         5/ 8
PANAMA CITY BUOY 0641   52 67   20/ 17/ 21 1020.7S         5/ 8
MOBILE BUOY      0627   50 63   40/ 19/ 23 1023.1R         5/ 5
ORANGE BCH AL BU 0700   46 62   20/ 19/ 23 1022.9S         3/ 4
$$



USA.gov is the U.S. government's official web portal to all federal, state and local government web resources and services.